Hourly Data Report for July 25, 2011

HALIFAX STANFIELD INT'L A
NOVA SCOTIA

44°52'48.060" N
63°30'00.050" W
145.40 m
8202250
71395
YHZ

Download Data

Hourly Data (July 2011)
Hourly Data Report for July 25, 2011
TIME
LST
Temp Definition
°C
Dew Point Definition
°C
Rel Hum Definition
%
Precip. Amount Definition
mm

Wind Dir Definition
10's deg

Wind Spd Definition
km/h
Visibility Definition
km
Stn Press Definition
kPa
Hmdx Definition


Wind Chill Definition


Weather Definition


00:00 13.1 9.6 79   14 4 24.1 99.81     Clear
01:00 12.7 9.3 80   20 6 24.1 99.80     Clear
02:00 13.1 7.9 71   20 6 24.1 99.79     Clear
03:00 12.5 8.3 76     0 24.1 99.80     Clear
04:00 12.5 9.4 81     0 24.1 99.82     Clear
05:00 11.7 9.4 86   24 6 24.1 99.86     Clear
06:00 13.9 10.8 82   25 7 24.1 99.89     Mainly Clear
07:00 16.5 11.0 70   28 6 24.1 99.93     Mainly Clear
08:00 18.9 12.3 66   26 6 24.1 99.94     Mainly Clear
09:00 19.6 11.5 59   34 9 24.1 99.92     Mainly Clear
10:00 21.0 10.1 50   31 11 24.1 99.93     Mainly Clear
11:00 22.9 10.4 45   29 9 24.1 99.91     Mainly Clear
12:00 23.1 8.4 39   27 6 24.1 99.86     Mainly Clear
13:00 23.0 8.4 39     0 24.1 99.80     Mainly Clear
14:00 22.7 9.3 42   9 7 24.1 99.76     Mainly Clear
15:00 22.3 11.1 49   17 15 24.1 99.76     Mainly Clear
16:00 23.4 9.0 40   20 22 24.1 99.75     Mainly Clear
17:00 22.3 8.2 40   18 19 24.1 99.76     Mainly Clear
18:00 20.9 7.8 43   18 24 24.1 99.75     Mainly Clear
19:00 17.9 8.5 54   18 13 24.1 99.79     Mainly Clear
20:00 14.6 9.6 72   19 13 24.1 99.79     Mostly Cloudy
21:00 12.4 9.5 82   16 15 24.1 99.81     Mainly Clear
22:00 11.5 9.4 87   16 15 24.1 99.76     Clear
23:00 10.7 9.1 90   18 11 24.1 99.76     Mainly Clear

Notes on Data Quality.

Legend

  • E = Estimated
  • M = Missing
  • NA = Not Available*
  • [empty] = Indicates an unobserved value
Date modified: